This demonstration page uses our WeatherBlox Daily Observations layout. Learn more.

Left ArrowRight Arrow

40.92501, -98.34201

Hourly Observations for June 22, 2015

Temp ( °F °C ) Dew Point ( °F °C ) Humidity (%) Winds ( mph kmh ) Pressure ( in mb ) Visibility ( mi km ) Precip ( " mm )
12:53 am 00:53 Clear 78 25.6 70 21.1 76 76 S 14 22 29.71 1006 10 16 0.00 0.00
1:53 am 01:53 Clear 79 26.1 69 20.6 72 72 S 18 30 29.69 1005 10 16 0.00 0.00
2:53 am 02:53 Clear 79 26.1 69 20.6 72 72 S 18 30 29.65 1004 10 16 0.00 0.00
3:53 am 03:53 Clear 79 26.1 68 20 69 69 SSW 21 33 29.62 1003 10 16 0.00 0.00
4:53 am 04:53 Clear 78 25.6 67 19.4 69 69 SSW 21 33 29.62 1003 10 16 0.00 0.00
5:53 am 05:53 Clear 77 25 67 19.4 71 71 SSW 17 28 29.64 1004 10 16 0.00 0.00
6:53 am 06:53 Sunny 77 25 67 19.4 71 71 SSW 16 26 29.65 1004 10 16 0.00 0.00
7:53 am 07:53 Sunny 76 24.4 67 19.4 74 74 W 8 13 29.70 1006 10 16 0.00 0.00
8:53 am 08:53 Sunny 81 27.2 69 20.6 67 67 W 10 17 29.70 1006 10 16 0.00 0.00
9:53 am 09:53 Sunny 83 28.3 69 20.6 63 63 W 12 19 29.71 1006 10 16 0.00 0.00
10:53 am 10:53 Sunny 85 29.4 70 21.1 61 61 NNW 18 30 29.73 1007 10 16 0.00 0.00
11:53 am 11:53 Mostly Sunny 83 28.3 69 20.6 63 63 N 22 35 29.78 1009 10 16 0.00 0.00
12:53 pm 12:53 Mostly Sunny 85 29.4 70 21.1 61 61 N 22 35 29.82 1010 10 16 0.00 0.00
1:53 pm 13:53 Sunny 84 28.9 64 17.8 51 51 N 21 33 29.86 1011 10 16 0.00 0.00
2:53 pm 14:53 Sunny 85 29.4 64 17.8 50 50 N 21 33 29.87 1012 10 16 0.00 0.00
3:53 pm 15:53 Sunny 84 28.9 65 18.3 53 53 N 23 37 29.90 1013 10 16 0.00 0.00
4:53 pm 16:53 Sunny 84 28.9 62 16.7 48 48 N 22 35 29.92 1013 10 16 0.00 0.00
5:53 pm 17:53 Sunny 83 28.3 58 14.4 43 43 N 18 30 29.94 1014 10 16 0.00 0.00
6:53 pm 18:53 Sunny 81 27.2 56 13.3 42 42 N 18 30 29.96 1014 10 16 0.00 0.00
7:53 pm 19:53 Sunny 78 25.6 52 11.1 40 40 N 13 20 29.97 1015 10 16 0.00 0.00
8:53 pm 20:53 Sunny 72 22.2 52 11.1 50 50 N 10 17 29.99 1016 10 16 0.00 0.00
9:53 pm 21:53 Clear 69 20.6 51 10.6 53 53 N 8 13 30.02 1017 10 16 0.00 0.00
10:53 pm 22:53 Clear 67 19.4 51 10.6 57 57 N 14 22 30.06 1018 10 16 0.00 0.00
11:53 pm 23:53 Clear 62 16.7 52 11.1 70 70 N 8 13 30.06 1018 10 16 0.00 0.00

Powered by AerisWeather